Location: Unspecified
(37.9193°N, 0.0000°E)
Time: 20:47:07
(UTC+00:00)

CUTE-I - Visible Passes

Search period start: 04 April 2026 00:00
Search period end: 14 April 2026 00:00
Orbit: 803 x 819 km, 98.7° (Epoch: 28 March)

Date Brightness Start Highest point End Pass type
(mag) Time Alt. Az. Time Alt. Az. Time Alt. Az.
5 Apr ? 05:09:08 10° NE 05:12:19 16° E 05:15:29 10° SE visible
7 Apr ? 19:02:41 10° WSW 19:05:00 13° W 19:07:20 10° WNW visible
10 Apr ? 04:54:07 10° E 04:54:43 10° E 04:55:19 10° E visible
11 Apr ? 19:09:43 10° WSW 19:11:08 11° W 19:12:33 10° WNW visible
